Change the Weather History Date:

Saturday, November 24, 2012

  Actual Average Record
Temperature  
Mean Temperature 44 °F -  
Max Temperature 51 °F 33 °F 59 °F (2014)
Min Temperature 38 °F 20 °F 10 °F (2008)
Degree Days  
Heating Degree Days 20    
Moisture  
Dew Point 46 °F    
Average Humidity 99    
Maximum Humidity 100    
Minimum Humidity 90    
Precipitation  
Precipitation 0.16 in 0.17 in - ()
Sea Level Pressure  
Sea Level Pressure 29.45 in    
Wind  
Wind Speed 5 mph ()    
Max Wind Speed 13 mph    
Max Gust Speed -    
Visibility 4.3 miles    
Events Fog , Rain    
Averages and records for this station are not official NWS values.
T = Trace of Precipitation, MM = Missing Value Source: Averaged Metar Reports

Daily Weather History Graph

Daily Weather History Graph

Search for Another Location

Airport or City:

Trip Planner

Search our weather history database for the weather conditions in past years. The results will help you decide how hot, cold, wet, or windy it might be!

Date:

Astronomy

Nov. 24, 2012 Rise Set
Actual Time 7:26 AM AST 4:31 PM AST
Civil Twilight 6:53 AM AST 5:05 PM AST
Nautical Twilight 6:16 AM AST 5:42 PM AST
Astronomical Twilight 5:40 AM AST 6:18 PM AST
Moon 2:23 PM AST (11/24) 3:29 AM AST (11/24)
Length of Visible Light 10h 11m
Length of Day
9h 04m
Waxing Gibbous, 86% of the Moon is Illuminated
Nov 24
Waxing Gibbous
Nov 28
Full
Dec 6
Last Quarter
Dec 13
New
Dec 20
First Quarter

Hourly Weather History & Observations

Time (AST) Temp. Windchill Dew Point Humidity Pressure Visibility Wind Dir Wind Speed Gust Speed Precip Events Conditions
12:00 AM 42.8 °F 36.2 °F 41.0 °F 93% 29.79 in 15.0 mi South 12.7 mph - N/A   Mostly Cloudy
1:00 AM 44.6 °F 39.2 °F 42.8 °F 93% 29.77 in 15.0 mi South 10.4 mph - N/A   Overcast
2:00 AM 45 °F - 43 °F 90% 29.76 in 15 mi South 8.1 mph - -   Overcast
2:00 AM 44.6 °F 40.7 °F 42.8 °F 93% 29.76 in 15.0 mi South 6.9 mph - N/A   Overcast
2:48 AM 44.6 °F 41.4 °F 44.6 °F 100% 29.75 in 15.0 mi South 5.8 mph - N/A   Overcast
3:00 AM 44.6 °F 42.2 °F 44.6 °F 100% 29.75 in 15.0 mi South 4.6 mph - N/A   Overcast
4:00 AM 44.6 °F 42.2 °F 44.6 °F 100% 29.71 in 12.0 mi SE 4.6 mph - N/A   Overcast
5:00 AM 44.6 °F 42.2 °F 44.6 °F 100% 29.68 in 1.5 mi ESE 4.6 mph - N/A   Overcast
5:10 AM 44.6 °F 41.4 °F 44.6 °F 100% 29.68 in 0.5 mi SE 5.8 mph - N/A Fog Fog
5:18 AM 44.6 °F 41.4 °F 44.6 °F 100% 29.68 in 0.4 mi ESE 5.8 mph - N/A Fog Fog
6:00 AM 44.6 °F 41.4 °F 44.6 °F 100% 29.66 in 0.4 mi ESE 5.8 mph - N/A Fog Fog
7:00 AM 44.6 °F 43.1 °F 44.6 °F 100% 29.64 in 0.5 mi ENE 3.5 mph - N/A Fog Fog
7:10 AM 44.6 °F 43.1 °F 44.6 °F 100% 29.64 in 0.8 mi NE 3.5 mph - N/A   Overcast
8:00 AM 45 °F - 45 °F 98% 29.63 in 2 mi NNE 4.6 mph - -   Mist
8:00 AM 44.6 °F 42.2 °F 44.6 °F 100% 29.63 in 2.0 mi NNE 4.6 mph - N/A   Overcast
8:37 AM 44.6 °F 42.2 °F 44.6 °F 100% 29.61 in 1.2 mi NNE 4.6 mph - N/A   Overcast
9:00 AM 46.4 °F 44.3 °F 46.4 °F 100% 29.60 in 3.0 mi North 4.6 mph - N/A   Overcast
10:00 AM 46.4 °F 44.3 °F 46.4 °F 100% 29.56 in 1.5 mi ENE 4.6 mph - N/A   Overcast
11:00 AM 48.2 °F - 48.2 °F 100% 29.53 in 1.5 mi ESE 6.9 mph - N/A   Overcast
11:35 AM 50.0 °F - 50.0 °F 100% 29.50 in 2.0 mi ESE 4.6 mph - N/A Rain Light Rain
12:00 PM 50.0 °F - 50.0 °F 100% 29.47 in 2.0 mi ESE 8.1 mph - N/A Rain Light Rain
12:40 PM 50.0 °F - 50.0 °F 100% 29.45 in 5.0 mi ESE 6.9 mph - N/A Rain Light Rain
1:00 PM 50.0 °F - 50.0 °F 100% 29.43 in 5.0 mi East 6.9 mph - N/A   Light Drizzle
2:00 PM 50 °F - 50 °F 100% 29.39 in 5 mi ESE 2.3 mph - - Rain Light Drizzle
2:00 PM 50.0 °F - 50.0 °F 100% 29.39 in 5.0 mi ESE 2.3 mph - N/A   Light Drizzle
3:00 PM 51.8 °F - 51.8 °F 100% 29.36 in 5.0 mi East 2.3 mph - N/A   Light Drizzle
3:40 PM 50.0 °F - 50.0 °F 100% 29.34 in 3.0 mi Calm Calm - N/A   Light Drizzle
4:00 PM 50.0 °F - 50.0 °F 100% 29.34 in 2.5 mi Calm Calm - N/A Rain Light Rain
4:27 PM 50.0 °F - 50.0 °F 100% 29.33 in 1.5 mi Variable 2.3 mph - N/A Rain Light Rain
4:42 PM 50.0 °F - 50.0 °F 100% 29.32 in 0.8 mi South 3.5 mph - N/A Rain Light Rain
4:48 PM 50.0 °F - 50.0 °F 100% 29.32 in 0.4 mi Calm Calm - N/A Fog , Rain Light Rain
5:00 PM 50.0 °F - 50.0 °F 100% 29.31 in 0.5 mi SW 2.3 mph - N/A Fog , Rain Light Rain
5:18 PM 50.0 °F - 50.0 °F 100% 29.31 in 2.5 mi West 5.8 mph - N/A Rain Light Rain
5:26 PM 48.2 °F - 48.2 °F 100% 29.30 in 5.0 mi WNW 6.9 mph - N/A Rain Light Rain
6:00 PM 46.4 °F 42.9 °F 46.4 °F 100% 29.30 in 5.0 mi WNW 6.9 mph - N/A Rain Light Rain
6:35 PM 46.4 °F 43.5 °F 46.4 °F 100% 29.29 in 6.0 mi West 5.8 mph - N/A   Light Drizzle
7:00 PM 46.4 °F 44.3 °F 46.4 °F 100% 29.28 in 6.0 mi NW 4.6 mph - N/A   Light Drizzle
7:33 PM 46.4 °F 45.2 °F 46.4 °F 100% 29.27 in 6.0 mi West 3.5 mph - N/A   Light Drizzle
7:45 PM 46.4 °F 44.3 °F 46.4 °F 100% 29.26 in 6.0 mi NW 4.6 mph - N/A Rain Light Rain Showers
8:00 PM 45 °F - 45 °F 100% 29.26 in 6 mi WNW 4.6 mph - - Fog Light Fog
8:00 PM 44.6 °F 43.1 °F 44.6 °F 100% 29.26 in 6.0 mi WNW 3.5 mph - N/A   Overcast
8:29 PM 44.6 °F 42.2 °F 44.6 °F 100% 29.25 in 2.5 mi WSW 4.6 mph - N/A   Overcast
9:00 PM 44.6 °F 42.2 °F 44.6 °F 100% 29.22 in 2.5 mi West 4.6 mph - N/A   Overcast
9:33 PM 44.6 °F 42.2 °F 44.6 °F 100% 29.21 in 0.5 mi WSW 4.6 mph - N/A Fog Fog
9:44 PM 44.6 °F 41.4 °F 44.6 °F 100% 29.21 in 0.4 mi West 5.8 mph - N/A Fog Fog
10:00 PM 44.6 °F 42.2 °F 44.6 °F 100% 29.21 in 0.4 mi WSW 4.6 mph - N/A Fog Fog
10:23 PM 42.8 °F 41.1 °F 42.8 °F 100% 29.19 in 0.2 mi SW 3.5 mph - N/A Fog Fog
11:00 PM 42.8 °F 41.1 °F 42.8 °F 100% 29.17 in 0.4 mi SW 3.5 mph - N/A Fog Fog
11:41 PM 42.8 °F 38.6 °F 42.8 °F 100% 29.16 in 0.5 mi SSW 6.9 mph - N/A Fog Fog